User: anonymous   Login
Location: Mentone
(34.5413°N, 85.5351°W)
Time: 11:13:08
(UTC-05:00)
Language:

Okean O Rocket - Orbit

View from above orbital plane
View from above orbital plane
View from above satellite
View from above satellite

Ground track
Ground track

The orbit data is extracted from the following two-line orbital elements,

1 25861U 99039B   17292.02310569  .00000051  00000-0  14456-4 0  9999
2 25861  98.1210 264.2723 0016695  46.5462 355.3226 14.78437934984079
Epoch (UTC): 19 October 2017 00:33:16
Eccentricity: 0.0016695
inclination: 98.1210°
perigee height: 622 km
apogee height: 646 km
right ascension of ascending node: 264.2723°
argument of perigee: 46.5462°
revolutions per day: 14.78437934
mean anomaly at epoch: 355.3226°
orbit number at epoch: 98407

The dashed part of the orbit path shows where the satellite is in the earth's shadow,  

DLR